This is the latest recevied weather packets stored in our database for station/object SV9TNF-52. If no packets are shown the sender has not sent any weather packets the latest 10 day(s).
| Time | Temp. | Humidity | Pressure | Rain* | Wind** | Luminosity | Snow |
|---|---|---|---|---|---|---|---|
| 1788446357 | 30° C | 55% | 1017.3 hPa | 0 mm | 5.81 m/s, 345° | - | - |
| 1788446057 | 30° C | 54% | 1017.3 hPa | 0 mm | 3.13 m/s, 62° | - | - |
| 1788445756 | 29.44° C | 53% | 1017.3 hPa | 0 mm | 8.05 m/s, 359° | - | - |
| 1788445456 | 30° C | 52% | 1017.3 hPa | 0 mm | 6.26 m/s, 40° | - | - |
| 1788445156 | 30° C | 56% | 1017.3 hPa | 0 mm | 1.79 m/s, 348° | - | - |
| 1788444856 | 29.44° C | 54% | 1017.3 hPa | 0 mm | 6.26 m/s, 66° | - | - |
| 1788444556 | 30.56° C | 53% | 1017.3 hPa | 0 mm | 4.47 m/s, 226° | - | - |
| 1788444255 | 30.56° C | 53% | 1017.3 hPa | 0 mm | 4.92 m/s, 273° | - | - |
| 1788443955 | 30.56° C | 53% | 1017.3 hPa | 0 mm | 6.26 m/s, 19° | - | - |
| 1788443655 | 31.11° C | 52% | 1017.3 hPa | 0 mm | 4.92 m/s, 306° | - | - |
| 1788443355 | 31.11° C | 52% | 1017.3 hPa | 0 mm | 5.81 m/s, 53° | - | - |
| 1788443055 | 31.67° C | 51% | 1017.3 hPa | 0 mm | 5.81 m/s, 318° | - | - |
| 1788442755 | 31.11° C | 52% | 1017.3 hPa | 0 mm | 4.47 m/s, 250° | - | - |
| 1788442455 | 31.11° C | 51% | 1017.3 hPa | 0 mm | 7.15 m/s, 0° | - | - |
| 1788442155 | 32.22° C | 51% | 1017.3 hPa | 0 mm | 1.79 m/s, 222° | - | - |
| 1788441855 | 31.67° C | 53% | 1017.3 hPa | 0 mm | 3.13 m/s, 336° | - | - |
| 1788441554 | 31.67° C | 52% | 1017.3 hPa | 0 mm | 4.92 m/s, 296° | - | - |
| 1788441255 | 31.67° C | 56% | 1017.3 hPa | 0 mm | 6.26 m/s, 345° | - | - |
| 1788440954 | 30.56° C | 59% | 1017.3 hPa | 0 mm | 6.26 m/s, 350° | - | - |
| 1788440654 | 31.11° C | 56% | 1017.3 hPa | 0 mm | 3.58 m/s, 0° | - | - |
| 1788440354 | 31.11° C | 57% | 1017.6 hPa | 0 mm | 4.02 m/s, 251° | - | - |
| 1788440054 | 30.56° C | 58% | 1017.6 hPa | 0 mm | 4.02 m/s, 358° | - | - |
| 1788439754 | 31.11° C | 57% | 1017.6 hPa | 0 mm | 8.94 m/s, 352° | - | - |
| 1788439473 | 30° C | 57% | 1017.6 hPa | 0 mm | 6.26 m/s, 291° | - | - |
| 1788439154 | 30.56° C | 56% | 1017.6 hPa | 0 mm | 3.58 m/s, 292° | - | - |
* Rain latest hour (hover to see other rain measurements)
** Current wind speed in m/s (hover to see current wind gust speed)